DTTJDTMB

Guest
Details From DTTJ - Djerba Zarzis
To DTMB - Monastir Habib Bourguiba Intl
Flight Number -
Tags generated
Created
Modified
Stats Distance 113 nm / 210 km
Max Altitude 4,300 ft / 1,311 m
Waypoints 4
Social Downloads 6
Likes 0
Share VATSIM

Download

Looking for another format? Having issues loading an existing format? Contact us
Advertisement - Login to hide

Notes

Basic altitude profile: - Ascent Rate: 2500ft/min - Ascent Speed: 250kts - Cruise Altitude: 35000ft - Cruise Speed: 420kts - Descent Rate: 1500ft/min - Descent Speed: 250kts Options: - Use NATs: yes - Use PACOTS: yes - Use low airways: yes - Use high airways: yes

Route

DTTJ ELJEM A411 MON DTMB

ID Type Via Altitude Latitude Longitude Leg Dist Tot Dist Heading (true) Name
O DTTJ APT - 0 ft / 0 m 33.87545˚ 10.77715˚ - 0 nm - Djerba Zarzis
ELJEM FIX - 4,300 ft / 1,311 m 35.42139˚ 10.72917˚ 92 nm 92 nm 359° / 359° -
MON VOR A411 (AWY-LO) 1,500 ft / 457 m 35.75492˚ 10.74806˚ 20 nm 112 nm 3° / 3° MONASTIR VOR-DME
O DTMB APT - 0 ft / 0 m 35.75784˚ 10.75403˚ 0 nm 113 nm 59° / 59° Monastir Habib Bourguiba Intl

Altitude Profile

Advertisement - Login to hide

DTTJ

Details ICAO DTTJ (DJE)
Name Djerba Zarzis
Region Tunisia
Timezone Africa/Tunis (UTC+1.0)
Stats Elevation 18 ft / 5 m (AMSL)
Location 33.875447° 10.777153°
Runways 1
Magnetic Variation 2.367° E

METAR

DTTJ 201030Z 01014KT 8000 SCT026 22/15 Q1011

Decode

TAF

TAF DTTJ 200507Z 2006/2106 02012KT 9999 SCT025 BECMG 2008/2010 08012KT TEMPO 2010/2016 08022KT

Decode

Departure Runways

ID Width Length Bearing (true) Bearing (mag) Surface Threshold Offset Overrun Length
09 148 ft / 45 m 10,191 ft / 3,106 m 88.28° 85.91° Asphalt 0 ft / 0 m 197 ft / 60 m
27 148 ft / 45 m 10,191 ft / 3,106 m 268.30° 265.93° Asphalt 0 ft / 0 m 197 ft / 60 m

DTMB

Details ICAO DTMB (MIR)
Name Monastir Habib Bourguiba Intl
Region Tunisia
Timezone Africa/Tunis (UTC+1.0)
Stats Elevation 9 ft / 3 m (AMSL)
Location 35.757843° 10.754025°
Runways 1
Magnetic Variation 2.473° E

METAR

DTMB 201030Z 34011KT 9999 FEW020 21/16 Q1012 NOSIG

Decode

TAF

TAF DTMB 200507Z 2006/2106 35012KT CAVOK BECMG 2012/2014 07012KT BECMG 2020/2022 13006KT

Decode

Destination Runways

ID Width Length Bearing (true) Bearing (mag) Surface Threshold Offset Overrun Length
07 148 ft / 45 m 9,627 ft / 2,934 m 73.54° 71.07° Asphalt 0 ft / 0 m 164 ft / 50 m
25 148 ft / 45 m 9,627 ft / 2,934 m 253.56° 251.09° Asphalt 0 ft / 0 m 164 ft / 50 m

Approach Navaids

Runway Type Ident Frequency Range Bearing (true) Bearing (mag) Slope Elevation
07 Localiser MIS 109.90 MHz 18 nm / 33 km 73.57° 71.09° - 9 ft / 3 m (AMSL)
07 Glidescope MIS 109.90 MHz 10 nm / 19 km 73.55° 71.08° 3.00° 9 ft / 3 m (AMSL)

Popular Alternatives